Location: Borojevi?i
(45.0486°N, 16.2297°E)
Time: 06:22:53
(UTC+00:00)

Cosmos 1934 Rocket - Pass Details

Date: 08 August 2020
Orbit: 937 x 1000 km, 83.0° (Epoch: 23 September)

Event Time Altitude Azimuth Distance (km) Brightness Sun altitude
Exits shadow 19:31:53 - 168° (SSE) 2,906 6.0 -12.9°
Reaches altitude 10° 19:32:18 10° 167° (SSE) 2,755 5.9 -13.0°
Maximum altitude 19:38:26 55° 92° (E) 1,190 4.2 -13.8°
Drops below altitude 10° 19:44:39 10° 16° (NNE) 2,779 6.7 -14.6°
Sets 19:47:13 0° 13° (NNE) 3,730 7.5 -15.0°
